Datum;Zeit;tVorlauf;tRuecklauf;pRuecklauf;pVorlauf;
07.11.2015;20:21:21;34.20;29.50;1.70;1.86;
07.11.2015;20:21:31;34.20;29.30;1.70;1.86;
07.11.2015;20:21:41;34.20;29.50;1.68;1.86;
07.11.2015;20:21:51;34.20;29.30;1.68;1.86;
07.11.2015;20:22:01;34.20;29.30;1.68;1.86;
07.11.2015;20:22:11;34.20;29.50;1.70;1.86;
07.11.2015;20:22:21;34.30;29.50;1.70;1.86;
07.11.2015;20:22:31;34.30;29.50;1.70;1.86;
07.11.2015;20:22:41;34.30;29.50;1.70;1.86;
07.11.2015;20:22:51;34.30;29.50;1.70;1.86;
07.11.2015;20:23:01;34.30;29.50;1.70;1.86;
07.11.2015;20:23:11;34.30;29.50;1.68;1.86;
07.11.2015;20:23:21;34.40;29.50;1.71;1.86;
07.11.2015;20:23:31;34.40;29.50;1.68;1.86;
07.11.2015;20:23:41;34.40;29.50;1.68;1.86;
07.11.2015;20:23:51;34.40;29.50;1.68;1.86;
07.11.2015;20:24:01;34.40;29.50;1.70;1.86;
07.11.2015;20:24:11;34.40;29.50;1.68;1.88;
07.11.2015;20:24:21;34.40;29.50;1.67;1.86;
07.11.2015;20:24:31;34.40;29.50;1.67;1.86;
07.11.2015;20:24:41;34.40;29.50;1.68;1.86;
07.11.2015;20:24:51;34.40;29.50;1.68;1.86;
07.11.2015;20:25:01;34.40;29.50;1.68;1.86;
07.11.2015;20:25:11;34.60;29.50;1.68;1.86;
07.11.2015;20:25:21;34.40;29.50;1.70;1.86;
07.11.2015;20:25:31;34.60;29.50;1.68;1.86;
07.11.2015;20:25:41;34.60;29.50;1.68;1.86;
07.11.2015;20:25:51;34.40;29.50;1.70;1.86;
07.11.2015;20:26:01;34.60;29.50;1.68;1.86;
07.11.2015;20:26:11;34.40;29.50;1.70;1.86;
07.11.2015;20:26:21;34.60;29.50;1.68;1.86;
07.11.2015;20:26:31;34.40;29.30;1.68;1.86;
07.11.2015;20:26:41;34.60;29.50;1.70;1.86;
07.11.2015;20:26:51;34.60;29.50;1.70;1.86;
07.11.2015;20:27:01;34.60;29.50;1.70;1.86;
07.11.2015;20:27:11;34.40;29.30;1.70;1.86;
07.11.2015;20:27:21;34.60;29.50;1.70;1.86;
07.11.2015;20:27:31;34.60;29.50;1.70;1.86;
07.11.2015;20:27:41;34.60;29.50;1.70;1.86;
07.11.2015;20:27:51;34.60;29.50;1.68;1.86;
07.11.2015;20:28:01;34.60;29.50;1.70;1.86;
07.11.2015;20:28:11;34.60;29.50;1.68;1.86;
07.11.2015;20:28:21;34.60;29.50;1.68;1.86;
07.11.2015;20:28:31;34.60;29.50;1.70;1.86;
07.11.2015;20:28:41;34.60;29.50;1.68;1.86;
07.11.2015;20:28:51;34.60;29.50;1.68;1.86;
07.11.2015;20:29:01;34.60;29.50;1.71;1.86;
07.11.2015;20:29:11;34.60;29.50;1.70;1.86;
07.11.2015;20:29:21;34.60;29.50;1.71;1.86;
07.11.2015;20:29:31;34.70;29.50;1.70;1.86;
07.11.2015;20:29:41;34.60;29.50;1.68;1.86;
07.11.2015;20:29:51;34.70;29.50;1.70;1.86;
07.11.2015;20:30:01;34.70;29.50;1.68;1.86;
07.11.2015;20:30:11;34.70;29.50;1.68;1.86;
07.11.2015;20:30:21;34.70;29.50;1.68;1.86;
07.11.2015;20:30:31;34.70;29.50;1.68;1.86;
07.11.2015;20:30:41;34.70;29.50;1.68;1.86;
07.11.2015;20:30:51;34.70;29.50;1.68;1.86;
07.11.2015;20:31:02;34.80;29.50;1.68;1.86;
07.11.2015;20:31:12;34.80;29.50;1.70;1.86;
07.11.2015;20:31:22;34.80;29.60;1.67;1.86;
07.11.2015;20:31:32;34.80;29.50;1.68;1.86;
07.11.2015;20:31:42;34.80;29.50;1.68;1.86;
07.11.2015;20:31:52;34.80;29.50;1.68;1.86;
07.11.2015;20:32:02;34.80;29.50;1.70;1.86;
07.11.2015;20:32:12;34.80;29.50;1.68;1.86;
07.11.2015;20:32:22;34.80;29.50;1.68;1.86;
07.11.2015;20:32:32;34.80;29.50;1.67;1.85;
07.11.2015;20:32:42;34.80;29.50;1.67;1.86;
07.11.2015;20:32:52;34.80;29.50;1.67;1.85;
07.11.2015;20:33:02;34.80;29.50;1.68;1.85;
07.11.2015;20:33:12;34.80;29.60;1.67;1.86;
07.11.2015;20:33:22;34.80;29.50;1.68;1.86;
07.11.2015;20:33:32;34.80;29.50;1.67;1.86;
07.11.2015;20:33:42;34.80;29.50;1.68;1.86;
07.11.2015;20:33:52;34.80;29.50;1.68;1.86;
07.11.2015;20:34:02;34.80;29.50;1.73;1.91;
07.11.2015;20:34:12;34.80;29.50;1.73;1.91;
07.11.2015;20:34:22;34.80;29.50;1.70;1.88;
07.11.2015;20:34:32;34.80;29.60;1.67;1.85;
07.11.2015;20:34:42;34.80;29.50;1.66;1.85;
07.11.2015;20:34:52;34.80;29.60;1.67;1.85;
07.11.2015;20:35:02;34.80;29.50;1.67;1.85;
07.11.2015;20:35:12;34.80;29.60;1.67;1.85;
07.11.2015;20:35:22;34.80;29.50;1.67;1.86;
07.11.2015;20:35:32;34.80;29.60;1.67;1.85;
07.11.2015;20:35:42;34.80;29.60;1.67;1.85;
07.11.2015;20:35:52;34.80;29.60;1.68;1.85;
07.11.2015;20:36:02;34.80;29.60;1.68;1.85;
07.11.2015;20:36:12;34.80;29.60;1.70;1.86;
07.11.2015;20:36:22;34.80;29.60;1.68;1.86;
07.11.2015;20:36:32;34.80;29.60;1.68;1.86;
07.11.2015;20:36:42;34.80;29.60;1.68;1.86;
07.11.2015;20:36:52;34.80;29.60;1.68;1.86;
07.11.2015;20:37:02;34.80;29.60;1.68;1.86;
07.11.2015;20:37:12;34.80;29.60;1.68;1.86;
07.11.2015;20:37:22;34.80;29.60;1.68;1.86;
07.11.2015;20:37:32;34.80;29.60;1.68;1.86;
07.11.2015;20:37:42;34.80;29.60;1.68;1.86;
07.11.2015;20:37:52;34.80;29.60;1.70;1.86;
07.11.2015;20:38:02;34.80;29.60;1.67;1.86;
07.11.2015;20:38:12;34.80;29.60;1.68;1.85;
07.11.2015;20:38:22;34.80;29.60;1.68;1.86;
07.11.2015;20:38:32;34.80;29.60;1.70;1.86;
07.11.2015;20:38:42;34.80;29.60;1.67;1.85;
07.11.2015;20:38:52;34.80;29.60;1.67;1.85;
07.11.2015;20:39:02;34.80;29.60;1.67;1.86;
07.11.2015;20:39:12;34.80;29.60;1.67;1.85;
07.11.2015;20:39:22;34.80;29.60;1.67;1.86;
07.11.2015;20:39:32;34.80;29.60;1.68;1.86;
07.11.2015;20:39:42;34.80;29.60;1.68;1.86;
07.11.2015;20:39:52;34.80;29.60;1.67;1.85;
07.11.2015;20:40:02;34.80;29.60;1.68;1.85;
07.11.2015;20:40:12;34.80;29.60;1.67;1.86;
07.11.2015;20:40:22;34.80;29.60;1.68;1.85;
07.11.2015;20:40:32;34.80;29.60;1.68;1.86;
07.11.2015;20:40:42;35.00;29.60;1.67;1.85;
07.11.2015;20:40:52;35.00;29.60;1.70;1.86;
07.11.2015;20:41:02;35.00;29.60;1.68;1.85;
07.11.2015;20:41:12;35.00;29.60;1.68;1.86;
07.11.2015;20:41:23;35.00;29.60;1.70;1.85;
07.11.2015;20:41:33;35.00;29.60;1.68;1.85;
07.11.2015;20:41:43;35.00;29.70;1.70;1.86;
07.11.2015;20:41:53;34.80;29.60;1.68;1.85;
07.11.2015;20:42:03;35.00;29.60;1.70;1.85;
07.11.2015;20:42:13;34.80;29.60;1.68;1.86;
07.11.2015;20:42:23;34.80;29.60;1.68;1.85;
07.11.2015;20:42:33;35.00;29.70;1.68;1.85;
07.11.2015;20:42:43;34.80;29.60;1.68;1.85;
07.11.2015;20:42:53;34.80;29.60;1.70;1.85;
07.11.2015;20:43:03;35.00;29.70;1.68;1.86;
07.11.2015;20:43:13;34.80;29.60;1.68;1.86;
07.11.2015;20:43:23;34.80;29.70;1.68;1.86;
07.11.2015;20:43:33;34.80;29.70;1.70;1.86;
07.11.2015;20:43:43;34.80;29.70;1.70;1.85;
07.11.2015;20:43:53;34.80;29.70;1.70;1.86;
07.11.2015;20:44:03;34.80;29.70;1.70;1.86;
07.11.2015;20:44:13;34.80;29.70;1.70;1.86;
07.11.2015;20:44:23;34.80;29.70;1.68;1.86;
07.11.2015;20:44:33;34.80;29.70;1.70;1.85;
07.11.2015;20:44:43;34.80;29.70;1.70;1.86;
07.11.2015;20:44:53;34.80;29.70;1.70;1.85;
07.11.2015;20:45:03;34.80;29.60;1.70;1.86;
07.11.2015;20:45:13;34.80;29.70;1.70;1.86;
07.11.2015;20:45:23;34.80;29.70;1.70;1.86;
07.11.2015;20:45:33;34.80;29.70;1.70;1.85;
07.11.2015;20:45:43;34.80;29.70;1.70;1.86;
07.11.2015;20:45:53;34.80;29.70;1.70;1.85;
07.11.2015;20:46:03;34.70;29.70;1.70;1.86;
07.11.2015;20:46:13;34.70;29.70;1.70;1.86;
07.11.2015;20:46:23;34.70;29.70;1.71;1.86;
07.11.2015;20:46:33;34.80;29.70;1.70;1.86;
07.11.2015;20:46:43;34.70;29.70;1.70;1.86;
07.11.2015;20:46:53;34.70;29.70;1.70;1.86;
07.11.2015;20:47:03;34.80;29.70;1.70;1.85;
07.11.2015;20:47:13;34.70;29.70;1.70;1.86;
07.11.2015;20:47:23;34.70;29.70;1.70;1.86;
07.11.2015;20:47:33;34.70;29.70;1.68;1.86;
07.11.2015;20:47:43;34.80;29.70;1.70;1.85;
07.11.2015;20:47:53;34.80;29.70;1.70;1.85;
07.11.2015;20:48:03;34.70;29.70;1.70;1.85;
07.11.2015;20:48:13;34.80;29.70;1.70;1.86;
07.11.2015;20:48:23;34.70;29.70;1.70;1.86;
07.11.2015;20:48:33;34.80;29.70;1.70;1.86;
07.11.2015;20:48:43;34.70;29.70;1.70;1.86;
07.11.2015;20:48:53;34.70;29.70;1.71;1.85;
07.11.2015;20:49:03;34.70;29.70;1.70;1.85;
07.11.2015;20:49:13;34.70;29.70;1.70;1.85;
07.11.2015;20:49:23;34.70;29.70;1.68;1.86;
07.11.2015;20:49:33;34.70;29.70;1.70;1.86;
07.11.2015;20:49:43;34.70;29.70;1.68;1.85;
07.11.2015;20:49:53;34.70;29.70;1.68;1.86;
07.11.2015;20:50:03;34.70;29.70;1.70;1.86;
07.11.2015;20:50:13;34.70;29.70;1.70;1.85;
07.11.2015;20:50:23;34.70;29.70;1.70;1.86;
07.11.2015;20:50:33;34.70;29.70;1.71;1.85;
07.11.2015;20:50:43;34.80;29.70;1.70;1.85;
07.11.2015;20:50:53;34.70;29.70;1.70;1.86;
07.11.2015;20:51:03;34.80;29.70;1.68;1.86;
07.11.2015;20:51:13;34.80;29.70;1.70;1.86;
07.11.2015;20:51:23;34.80;29.70;1.70;1.86;
07.11.2015;20:51:33;34.80;29.70;1.70;1.85;
07.11.2015;20:51:44;34.80;29.70;1.70;1.86;
07.11.2015;20:51:54;34.80;29.70;1.70;1.86;
07.11.2015;20:52:04;34.80;29.70;1.70;1.86;
07.11.2015;20:52:14;34.80;29.70;1.70;1.86;
07.11.2015;20:52:24;34.80;29.70;1.72;1.86;
07.11.2015;20:52:34;34.80;29.70;1.70;1.86;
07.11.2015;20:52:44;34.80;29.70;1.70;1.85;
07.11.2015;20:52:54;34.80;29.70;1.71;1.86;
07.11.2015;20:53:04;34.80;29.70;1.70;1.86;
07.11.2015;20:53:14;34.80;29.70;1.71;1.86;
07.11.2015;20:53:24;34.80;29.70;1.70;1.86;
07.11.2015;20:53:34;34.80;29.70;1.70;1.86;
07.11.2015;20:53:44;34.80;29.70;1.70;1.86;
07.11.2015;20:53:54;34.80;29.70;1.70;1.86;
07.11.2015;20:54:04;34.80;29.70;1.71;1.86;
07.11.2015;20:54:14;34.80;29.70;1.71;1.86;
07.11.2015;20:54:24;34.80;29.70;1.71;1.86;
07.11.2015;20:54:34;34.80;29.70;1.70;1.86;
07.11.2015;20:54:44;34.80;29.70;1.71;1.85;
07.11.2015;20:54:54;34.80;29.70;1.71;1.85;
07.11.2015;20:55:04;34.80;29.70;1.70;1.85;
07.11.2015;20:55:14;34.80;29.70;1.70;1.86;
07.11.2015;20:55:24;34.80;29.70;1.71;1.86;
07.11.2015;20:55:34;34.80;29.70;1.70;1.86;
07.11.2015;20:55:44;34.80;29.70;1.70;1.86;
07.11.2015;20:55:54;34.80;29.70;1.71;1.86;
07.11.2015;20:56:04;34.80;29.70;1.71;1.85;
07.11.2015;20:56:14;34.80;29.70;1.68;1.85;
07.11.2015;20:56:24;34.80;29.70;1.71;1.85;
07.11.2015;20:56:34;34.80;29.70;1.71;1.85;
07.11.2015;20:56:44;35.00;29.70;1.71;1.85;
07.11.2015;20:56:54;34.80;29.70;1.71;1.85;
07.11.2015;20:57:04;34.80;29.70;1.70;1.85;
07.11.2015;20:57:14;34.80;29.70;1.70;1.85;
07.11.2015;20:57:24;35.00;29.70;1.70;1.86;
07.11.2015;20:57:34;35.00;29.70;1.71;1.86;
07.11.2015;20:57:44;35.00;29.70;1.70;1.86;
07.11.2015;20:57:54;35.00;29.70;1.70;1.85;
07.11.2015;20:58:04;35.00;29.70;1.70;1.86;
07.11.2015;20:58:14;35.00;29.70;1.70;1.86;
07.11.2015;20:58:24;35.00;29.70;1.70;1.85;
07.11.2015;20:58:34;35.00;29.70;1.70;1.86;
07.11.2015;20:58:44;35.00;29.70;1.70;1.85;
07.11.2015;20:58:54;35.00;29.70;1.70;1.85;
07.11.2015;20:59:04;35.00;29.70;1.71;1.85;
07.11.2015;20:59:14;35.00;29.70;1.70;1.86;
07.11.2015;20:59:24;35.00;29.70;1.70;1.85;
07.11.2015;20:59:34;35.00;29.70;1.71;1.86;
07.11.2015;20:59:44;35.00;29.70;1.71;1.85;
07.11.2015;20:59:54;35.00;29.70;1.70;1.85;
07.11.2015;21:00:04;35.00;29.70;1.70;1.86;
07.11.2015;21:00:14;35.00;29.70;1.70;1.85;
07.11.2015;21:00:24;35.00;29.70;1.71;1.86;
07.11.2015;21:00:34;35.00;29.70;1.71;1.85;
07.11.2015;21:00:44;35.00;29.70;1.71;1.85;
07.11.2015;21:00:54;35.00;29.70;1.71;1.85;
07.11.2015;21:01:04;35.00;29.70;1.70;1.85;
07.11.2015;21:01:14;35.00;29.70;1.71;1.85;
07.11.2015;21:01:24;35.00;29.70;1.70;1.86;
07.11.2015;21:01:34;35.00;29.70;1.70;1.85;
07.11.2015;21:01:44;35.00;29.70;1.71;1.86;
07.11.2015;21:01:54;35.00;29.70;1.71;1.85;
07.11.2015;21:02:05;35.00;29.70;1.71;1.86;
07.11.2015;21:02:15;35.00;29.70;1.70;1.85;
07.11.2015;21:02:25;35.00;29.70;1.70;1.85;
07.11.2015;21:02:35;35.00;29.70;1.70;1.86;
07.11.2015;21:02:45;35.00;29.70;1.70;1.85;
07.11.2015;21:02:55;35.00;29.70;1.70;1.85;
07.11.2015;21:03:05;35.00;29.90;1.68;1.85;
07.11.2015;21:03:15;35.00;29.70;1.68;1.85;
07.11.2015;21:03:25;35.00;29.70;1.70;1.86;
07.11.2015;21:03:35;35.00;29.90;1.68;1.85;
07.11.2015;21:03:45;35.00;29.90;1.70;1.85;
07.11.2015;21:03:55;35.00;29.90;1.68;1.85;
07.11.2015;21:04:05;35.00;29.90;1.68;1.85;
07.11.2015;21:04:15;35.00;29.90;1.68;1.85;
07.11.2015;21:04:25;35.00;29.90;1.68;1.85;
07.11.2015;21:04:35;35.00;29.90;1.70;1.85;
07.11.2015;21:04:45;35.00;29.90;1.68;1.85;
07.11.2015;21:04:55;35.10;29.90;1.70;1.85;
07.11.2015;21:05:05;35.30;29.60;1.71;1.85;
07.11.2015;21:05:15;35.70;29.30;1.70;1.85;
07.11.2015;21:05:25;35.90;28.90;1.68;1.85;
07.11.2015;21:05:35;36.20;28.60;1.70;1.85;
07.11.2015;21:05:45;36.40;28.20;1.70;1.85;
07.11.2015;21:05:55;36.60;27.80;1.70;1.85;
07.11.2015;21:06:05;36.70;27.40;1.70;1.85;
07.11.2015;21:06:15;36.80;27.10;1.70;1.85;
07.11.2015;21:06:25;36.90;26.60;1.70;1.85;
07.11.2015;21:06:35;36.90;26.20;1.70;1.85;
07.11.2015;21:06:45;37.00;25.90;1.70;1.85;
07.11.2015;21:06:55;37.00;25.60;1.70;1.85;
07.11.2015;21:07:05;37.00;25.30;1.68;1.86;
07.11.2015;21:07:15;37.00;24.90;1.70;1.85;
07.11.2015;21:07:25;37.00;24.70;1.70;1.85;
07.11.2015;21:07:35;36.90;24.60;1.70;1.85;
07.11.2015;21:07:45;36.90;24.40;1.70;1.85;
07.11.2015;21:07:55;36.90;24.30;1.70;1.85;
07.11.2015;21:08:05;36.90;24.10;1.70;1.85;
07.11.2015;21:08:15;36.80;24.10;1.71;1.85;
07.11.2015;21:08:25;36.80;24.10;1.71;1.85;
07.11.2015;21:08:35;36.70;24.10;1.70;1.85;
07.11.2015;21:08:45;36.70;24.10;1.70;1.85;
07.11.2015;21:08:55;36.70;24.10;1.70;1.85;
07.11.2015;21:09:05;36.60;24.10;1.70;1.85;
07.11.2015;21:09:15;36.60;24.10;1.70;1.85;
07.11.2015;21:09:25;36.60;24.30;1.70;1.85;
07.11.2015;21:09:35;36.40;24.30;1.70;1.85;
07.11.2015;21:09:45;36.40;24.30;1.70;1.85;
07.11.2015;21:09:55;36.40;24.40;1.71;1.85;
07.11.2015;21:10:05;36.30;24.40;1.68;1.85;
07.11.2015;21:10:15;36.30;24.60;1.70;1.85;
07.11.2015;21:10:25;36.30;24.60;1.71;1.85;
07.11.2015;21:10:35;36.30;24.70;1.68;1.85;
07.11.2015;21:10:45;36.20;24.70;1.70;1.85;
07.11.2015;21:10:55;36.20;24.90;1.71;1.86;
07.11.2015;21:11:05;36.20;24.90;1.70;1.85;
07.11.2015;21:11:15;36.20;25.00;1.68;1.85;
07.11.2015;21:11:25;36.10;25.20;1.70;1.85;
07.11.2015;21:11:35;36.10;25.20;1.70;1.85;
07.11.2015;21:11:45;36.10;25.30;1.68;1.85;
07.11.2015;21:11:55;36.10;25.30;1.70;1.85;
07.11.2015;21:12:05;36.10;25.50;1.71;1.86;
07.11.2015;21:12:15;35.90;25.50;1.70;1.86;
07.11.2015;21:12:25;35.90;25.60;1.70;1.85;
07.11.2015;21:12:36;35.90;25.60;1.70;1.85;
07.11.2015;21:12:46;35.90;25.80;1.68;1.85;
07.11.2015;21:12:56;35.90;25.80;1.70;1.85;
07.11.2015;21:13:06;35.90;25.90;1.68;1.85;
07.11.2015;21:13:16;35.80;25.90;1.68;1.85;
07.11.2015;21:13:26;35.80;25.90;1.68;1.85;
07.11.2015;21:13:36;35.80;26.10;1.67;1.85;
07.11.2015;21:13:46;35.80;26.10;1.68;1.85;
07.11.2015;21:13:56;35.80;26.20;1.70;1.85;
07.11.2015;21:14:06;35.80;26.20;1.70;1.85;
07.11.2015;21:14:16;35.70;26.40;1.68;1.85;
07.11.2015;21:14:26;35.70;26.40;1.68;1.85;
07.11.2015;21:14:36;35.70;26.50;1.68;1.86;
07.11.2015;21:14:46;35.70;26.50;1.68;1.85;
07.11.2015;21:14:56;35.70;26.60;1.70;1.85;
07.11.2015;21:15:06;35.70;26.60;1.68;1.85;
07.11.2015;21:15:16;35.60;26.60;1.68;1.85;
07.11.2015;21:15:26;35.60;26.80;1.68;1.85;
07.11.2015;21:15:36;35.60;26.80;1.68;1.85;
07.11.2015;21:15:46;35.60;26.90;1.70;1.86;
07.11.2015;21:15:56;35.60;26.80;1.70;1.85;
07.11.2015;21:16:06;35.60;26.90;1.71;1.85;
07.11.2015;21:16:16;35.40;26.90;1.70;1.85;
07.11.2015;21:16:26;35.40;26.90;1.68;1.85;
07.11.2015;21:16:36;35.30;26.90;1.68;1.85;
07.11.2015;21:16:46;35.40;27.10;1.70;1.85;
07.11.2015;21:16:56;35.40;27.10;1.70;1.85;
07.11.2015;21:17:06;35.40;27.20;1.68;1.85;
07.11.2015;21:17:16;35.40;27.20;1.68;1.85;
07.11.2015;21:17:26;35.30;27.40;1.70;1.85;
07.11.2015;21:17:36;35.30;27.40;1.68;1.85;
07.11.2015;21:17:46;35.30;27.40;1.70;1.85;
07.11.2015;21:17:56;35.30;27.40;1.68;1.85;
07.11.2015;21:18:06;35.30;27.50;1.70;1.85;
07.11.2015;21:18:16;35.30;27.50;1.70;1.85;
07.11.2015;21:18:26;35.30;27.50;1.68;1.85;
07.11.2015;21:18:36;35.20;27.50;1.70;1.85;
07.11.2015;21:18:46;35.20;27.70;1.71;1.85;
07.11.2015;21:18:56;35.20;27.70;1.68;1.85;
07.11.2015;21:19:06;35.20;27.70;1.68;1.85;
07.11.2015;21:19:16;35.20;27.70;1.70;1.85;
07.11.2015;21:19:26;35.20;27.70;1.70;1.84;
07.11.2015;21:19:36;35.20;27.80;1.70;1.85;
07.11.2015;21:19:46;35.20;27.80;1.71;1.85;
07.11.2015;21:19:56;35.20;27.80;1.70;1.85;
07.11.2015;21:20:06;35.20;27.80;1.70;1.85;
07.11.2015;21:20:16;35.20;27.80;1.70;1.85;
07.11.2015;21:20:26;35.20;27.80;1.71;1.85;
07.11.2015;21:20:36;35.20;27.80;1.70;1.85;
07.11.2015;21:20:46;35.20;27.70;1.68;1.85;
07.11.2015;21:20:56;35.20;27.70;1.71;1.85;
07.11.2015;21:21:06;35.20;27.70;1.71;1.85;
07.11.2015;21:21:16;35.20;27.70;1.68;1.85;
07.11.2015;21:21:26;35.20;27.70;1.70;1.85;
07.11.2015;21:21:36;35.20;27.70;1.70;1.85;
07.11.2015;21:21:46;35.20;27.50;1.70;1.85;
07.11.2015;21:21:56;35.20;27.50;1.70;1.85;
07.11.2015;21:22:06;35.20;27.50;1.70;1.85;
07.11.2015;21:22:16;35.20;27.50;1.70;1.85;
07.11.2015;21:22:26;35.20;27.50;1.70;1.85;
07.11.2015;21:22:36;35.20;27.40;1.70;1.85;
07.11.2015;21:22:46;35.20;27.40;1.70;1.84;
07.11.2015;21:22:57;35.20;27.40;1.68;1.84;
07.11.2015;21:23:07;35.20;27.40;1.68;1.84;
07.11.2015;21:23:17;35.20;27.40;1.68;1.84;
07.11.2015;21:23:27;35.20;27.40;1.68;1.84;
07.11.2015;21:23:37;35.20;27.40;1.68;1.84;
07.11.2015;21:23:47;35.20;27.40;1.68;1.84;
07.11.2015;21:23:57;35.20;27.40;1.67;1.84;
07.11.2015;21:24:07;35.20;27.40;1.68;1.84;
07.11.2015;21:24:17;35.20;27.20;1.68;1.84;
07.11.2015;21:24:27;35.20;27.40;1.68;1.84;
07.11.2015;21:24:37;35.20;27.40;1.70;1.84;
07.11.2015;21:24:47;35.20;27.40;1.68;1.84;
07.11.2015;21:24:57;35.20;27.40;1.70;1.84;
07.11.2015;21:25:07;35.20;27.40;1.70;1.84;
07.11.2015;21:25:17;35.20;27.40;1.70;1.84;
07.11.2015;21:25:27;35.20;27.40;1.70;1.84;
07.11.2015;21:25:37;35.20;27.40;1.70;1.85;
07.11.2015;21:25:47;35.20;27.40;1.68;1.84;
07.11.2015;21:25:57;35.20;27.40;1.70;1.84;
07.11.2015;21:26:07;35.20;27.40;1.68;1.84;
07.11.2015;21:26:17;35.10;27.40;1.68;1.84;
07.11.2015;21:26:27;35.10;27.50;1.68;1.84;
07.11.2015;21:26:37;35.10;27.50;1.67;1.84;
07.11.2015;21:26:47;35.10;27.50;1.67;1.84;
07.11.2015;21:26:57;35.10;27.50;1.67;1.84;
07.11.2015;21:27:07;35.20;27.50;1.68;1.84;
07.11.2015;21:27:17;35.10;27.50;1.67;1.84;
07.11.2015;21:27:27;35.10;27.70;1.68;1.84;
07.11.2015;21:27:37;35.10;27.70;1.68;1.84;
07.11.2015;21:27:47;35.20;27.70;1.68;1.84;
07.11.2015;21:27:57;35.10;27.80;1.68;1.84;
07.11.2015;21:28:07;35.10;27.80;1.67;1.85;
07.11.2015;21:28:17;35.20;27.80;1.67;1.84;
07.11.2015;21:28:27;35.10;27.90;1.68;1.84;
07.11.2015;21:28:37;35.10;27.90;1.67;1.85;
07.11.2015;21:28:47;35.10;28.10;1.68;1.85;
07.11.2015;21:28:57;35.10;28.10;1.68;1.84;
07.11.2015;21:29:07;35.10;28.10;1.68;1.84;
07.11.2015;21:29:17;35.10;28.10;1.67;1.85;
07.11.2015;21:29:27;35.10;28.20;1.70;1.85;
07.11.2015;21:29:37;35.10;28.20;1.70;1.85;
07.11.2015;21:29:47;35.10;28.20;1.71;1.85;
07.11.2015;21:29:57;35.10;28.40;1.68;1.85;
07.11.2015;21:30:07;35.10;28.40;1.70;1.85;
07.11.2015;21:30:17;35.10;28.40;1.68;1.85;
07.11.2015;21:30:27;35.10;28.50;1.68;1.85;
07.11.2015;21:30:37;35.00;28.50;1.67;1.85;
07.11.2015;21:30:47;35.00;28.50;1.68;1.85;
07.11.2015;21:30:57;35.00;28.60;1.70;1.85;
07.11.2015;21:31:07;35.00;28.60;1.68;1.85;
07.11.2015;21:31:17;35.00;28.60;1.68;1.85;
07.11.2015;21:31:27;35.00;28.80;1.68;1.85;
07.11.2015;21:31:37;35.00;28.80;1.68;1.85;
07.11.2015;21:31:47;35.00;28.80;1.68;1.85;
07.11.2015;21:31:57;34.80;28.80;1.71;1.85;
07.11.2015;21:32:07;34.80;28.90;1.70;1.85;
07.11.2015;21:32:17;34.80;28.90;1.68;1.85;
07.11.2015;21:32:27;34.80;28.90;1.70;1.85;
07.11.2015;21:32:37;34.80;28.90;1.70;1.85;
07.11.2015;21:32:47;34.70;29.10;1.70;1.85;
07.11.2015;21:32:57;34.70;29.10;1.70;1.85;
07.11.2015;21:33:07;34.70;29.10;1.70;1.85;
07.11.2015;21:33:17;34.70;29.10;1.70;1.85;
07.11.2015;21:33:28;34.70;29.10;1.68;1.85;
07.11.2015;21:33:38;34.70;29.20;1.68;1.85;
07.11.2015;21:33:48;34.70;29.20;1.70;1.85;
07.11.2015;21:33:58;34.70;29.20;1.68;1.85;
07.11.2015;21:34:08;34.60;29.20;1.68;1.85;
07.11.2015;21:34:18;34.60;29.20;1.68;1.85;
07.11.2015;21:34:28;34.70;29.30;1.68;1.85;
07.11.2015;21:34:38;34.60;29.30;1.68;1.85;
07.11.2015;21:34:48;34.60;29.30;1.70;1.85;
07.11.2015;21:34:58;34.60;29.30;1.70;1.85;
07.11.2015;21:35:08;34.60;29.30;1.70;1.85;
07.11.2015;21:35:18;34.60;29.30;1.70;1.85;
07.11.2015;21:35:28;34.60;29.30;1.68;1.85;
07.11.2015;21:35:38;34.60;29.30;1.68;1.85;
07.11.2015;21:35:48;34.60;29.50;1.68;1.85;
07.11.2015;21:35:58;34.40;29.50;1.68;1.85;
07.11.2015;21:36:08;34.40;29.50;1.67;1.85;
07.11.2015;21:36:18;34.40;29.50;1.68;1.85;
07.11.2015;21:36:28;34.40;29.50;1.68;1.85;
07.11.2015;21:36:38;34.40;29.50;1.68;1.85;
07.11.2015;21:36:48;34.40;29.50;1.68;1.85;
07.11.2015;21:36:58;34.60;29.50;1.68;1.85;
07.11.2015;21:37:08;34.60;29.60;1.68;1.85;
07.11.2015;21:37:18;34.60;29.60;1.68;1.85;
07.11.2015;21:37:28;34.60;29.50;1.68;1.85;
07.11.2015;21:37:38;34.60;29.60;1.70;1.85;
07.11.2015;21:37:48;34.60;29.60;1.70;1.85;
07.11.2015;21:37:58;34.60;29.60;1.70;1.85;
07.11.2015;21:38:08;34.60;29.70;1.68;1.85;
07.11.2015;21:38:18;34.60;29.60;1.70;1.85;
07.11.2015;21:38:28;34.60;29.60;1.68;1.85;
07.11.2015;21:38:38;34.60;29.70;1.70;1.85;
07.11.2015;21:38:48;34.60;29.60;1.70;1.85;
07.11.2015;21:38:58;34.70;29.70;1.70;1.85;
07.11.2015;21:39:08;34.70;29.70;1.67;1.85;
07.11.2015;21:39:18;34.70;29.70;1.68;1.85;
07.11.2015;21:39:28;34.70;29.70;1.68;1.85;
07.11.2015;21:39:38;34.70;29.70;1.70;1.85;
07.11.2015;21:39:48;34.70;29.70;1.68;1.85;
07.11.2015;21:39:58;34.70;29.60;1.70;1.85;
07.11.2015;21:40:08;34.70;29.70;1.68;1.85;
07.11.2015;21:40:18;34.70;29.70;1.68;1.85;
07.11.2015;21:40:28;34.70;29.70;1.70;1.85;
07.11.2015;21:40:38;34.70;29.70;1.70;1.85;
07.11.2015;21:40:48;34.70;29.70;1.70;1.85;
07.11.2015;21:40:58;34.70;29.70;1.70;1.85;
07.11.2015;21:41:08;34.70;29.70;1.70;1.85;
07.11.2015;21:41:18;34.70;29.70;1.68;1.85;
07.11.2015;21:41:28;34.70;29.70;1.70;1.85;
07.11.2015;21:41:38;34.70;29.70;1.68;1.85;
07.11.2015;21:41:48;34.70;29.70;1.68;1.85;
07.11.2015;21:41:58;34.70;29.70;1.70;1.85;
07.11.2015;21:42:08;34.70;29.70;1.67;1.85;
07.11.2015;21:42:18;34.70;29.70;1.70;1.85;
07.11.2015;21:42:28;34.70;29.70;1.68;1.85;
07.11.2015;21:42:38;34.70;29.70;1.67;1.85;
07.11.2015;21:42:48;34.70;29.70;1.68;1.85;
07.11.2015;21:42:58;34.70;29.70;1.68;1.85;
07.11.2015;21:43:08;34.60;29.90;1.67;1.85;
07.11.2015;21:43:18;34.60;29.90;1.68;1.85;
07.11.2015;21:43:28;34.70;29.90;1.68;1.85;
07.11.2015;21:43:39;34.70;29.90;1.68;1.85;
07.11.2015;21:43:49;34.70;29.90;1.68;1.85;
07.11.2015;21:43:59;34.70;29.90;1.68;1.85;
07.11.2015;21:44:09;34.60;29.90;1.70;1.85;
07.11.2015;21:44:19;34.60;29.90;1.70;1.85;
07.11.2015;21:44:29;34.60;29.90;1.70;1.85;
07.11.2015;21:44:39;34.60;29.90;1.70;1.85;
07.11.2015;21:44:49;34.60;30.00;1.70;1.86;
07.11.2015;21:44:59;34.60;30.00;1.68;1.86;
07.11.2015;21:45:09;34.70;30.00;1.68;1.86;
07.11.2015;21:45:19;34.80;30.10;1.68;1.86;
07.11.2015;21:45:29;34.80;30.00;1.70;1.86;
07.11.2015;21:45:39;34.80;30.00;1.68;1.86;
07.11.2015;21:45:49;34.80;30.00;1.67;1.85;
07.11.2015;21:45:59;35.00;30.00;1.67;1.85;
07.11.2015;21:46:09;35.00;30.00;1.68;1.86;
07.11.2015;21:46:19;35.00;30.00;1.68;1.85;
07.11.2015;21:46:29;35.00;30.00;1.68;1.86;
07.11.2015;21:46:39;35.00;30.00;1.70;1.86;
07.11.2015;21:46:49;35.00;30.00;1.70;1.86;
07.11.2015;21:46:59;35.00;30.00;1.68;1.86;
07.11.2015;21:47:09;35.00;30.00;1.68;1.85;
07.11.2015;21:47:19;35.00;29.90;1.68;1.85;
07.11.2015;21:47:29;35.00;29.90;1.67;1.85;
07.11.2015;21:47:39;35.00;29.90;1.66;1.85;
07.11.2015;21:47:49;35.00;29.90;1.67;1.85;
07.11.2015;21:47:59;35.00;29.90;1.68;1.85;
07.11.2015;21:48:09;35.00;29.90;1.67;1.85;
07.11.2015;21:48:19;35.00;29.70;1.67;1.84;
07.11.2015;21:48:29;35.00;29.70;1.67;1.84;
07.11.2015;21:48:39;35.10;29.70;1.67;1.84;
07.11.2015;21:48:49;35.00;29.60;1.67;1.84;
07.11.2015;21:48:59;35.00;29.60;1.68;1.84;
07.11.2015;21:49:09;35.00;29.60;1.67;1.84;
07.11.2015;21:49:19;35.00;29.60;1.68;1.84;
07.11.2015;21:49:29;35.10;29.60;1.67;1.84;
07.11.2015;21:49:39;35.10;29.60;1.67;1.84;
07.11.2015;21:49:49;35.10;29.60;1.67;1.84;
07.11.2015;21:49:59;35.10;29.60;1.67;1.84;
07.11.2015;21:50:09;35.10;29.60;1.67;1.84;
07.11.2015;21:50:19;35.10;29.50;1.67;1.84;
07.11.2015;21:50:29;35.10;29.50;1.67;1.84;
07.11.2015;21:50:39;35.10;29.50;1.67;1.84;
07.11.2015;21:50:49;35.10;29.50;1.68;1.84;
07.11.2015;21:50:59;35.10;29.50;1.66;1.84;
07.11.2015;21:51:09;35.10;29.50;1.67;1.84;
07.11.2015;21:51:19;35.10;29.50;1.67;1.84;
07.11.2015;21:51:29;35.10;29.50;1.67;1.84;
07.11.2015;21:51:39;35.10;29.50;1.68;1.84;
07.11.2015;21:51:49;35.10;29.50;1.68;1.84;
07.11.2015;21:51:59;35.10;29.30;1.68;1.84;